{"data":{"norad_id":59370,"epoch":"2026-09-21T05:33:20.581344Z","epoch_age_seconds":99051,"freshness":"FRESH","line1":"1 59370U 24060Y   26264.23148821  .00000843  00000+0  40153-4 0  9996","line2":"2 59370  43.0015 224.7049 0000909 288.3707  71.7046 15.27578280140038","mean_motion":15.2757828,"eccentricity":9.09e-5,"inclination_deg":43.0015,"raan_deg":224.7049,"arg_perigee_deg":288.3707,"mean_anomaly_deg":71.7046,"bstar":4.0153e-5,"rev_number":14003,"period_min":94.266854854731,"perigee_km":482.43056405896,"apogee_km":483.67792862755,"semimajor_km":6861.1912463433,"source":"CELESTRAK","updated_at":"2026-09-22T09:00:48.907588Z"}}